Date,TemperatureHighF,TemperatureAvgF,TemperatureLowF,DewpointHighF,DewpointAvgF,DewpointLowF,HumidityHigh,HumidityAvg,HumidityLow,PressureMaxIn,PressureMinIn,WindSpeedMaxMPH,WindSpeedAvgMPH,GustSpeedMaxMPH,PrecipitationSumIn
2014-1-1,57.5,51.4,43.9,52.0,49.3,42.3,98,93,80,30.24,30.00,4,0,5,3.15
2014-1-2,57.0,49.5,34.0,56.7,46.8,27.6,99,90,73,30.16,29.82,12,0,12,1.74
2014-1-3,41.9,31.6,24.0,27.6,21.3,16.4,95,68,37,30.34,30.16,13,0,13,92.41
2014-1-4,50.8,37.2,23.6,39.1,31.4,22.3,96,80,63,30.28,30.01,5,0,5,39.15
2014-1-5,63.3,52.5,0.0,61.0,50.1,0.0,98,91,78,30.01,29.77,1,0,1,0.23
2014-1-6,61.6,32.2,0.0,60.9,20.1,0.0,98,60,33,30.44,29.78,13,0,13,0.06
2014-1-7,30.9,22.5,16.1,14.2,5.6,0.0,76,49,32,30.57,30.42,13,0,13,0.00
2014-1-8,46.2,32.4,0.0,27.3,15.8,0.0,91,55,23,30.47,30.30,10,0,10,0.00
2014-1-9,48.3,44.2,35.9,48.0,38.4,22.1,99,82,49,30.33,30.16,10,0,10,0.18
2014-1-10,66.5,55.4,48.3,66.5,55.1,48.0,100,99,99,30.16,29.90,0,0,0,0.07
2014-1-11,70.8,63.3,44.8,68.0,60.3,37.2,100,90,57,29.99,29.73,4,0,4,1.13
2014-1-12,65.6,47.2,33.8,48.2,38.4,33.0,99,77,31,30.16,29.99,4,0,4,0.00
2014-1-13,62.4,47.9,0.0,58.1,45.9,0.0,99,88,67,30.08,29.80,1,0,1,0.95
2014-1-14,63.8,53.0,34.9,59.0,44.1,32.3,99,77,33,30.00,29.76,12,0,12,0.33
2014-1-15,54.9,41.8,33.6,40.7,33.6,21.8,99,75,45,30.07,29.94,12,0,12,0.00
2014-1-16,52.3,36.8,25.0,33.7,22.4,12.0,97,61,23,30.15,30.02,5,0,5,0.00
2014-1-17,62.5,46.8,33.6,47.7,31.3,14.8,99,61,26,30.12,29.96,4,0,4,0.00
2014-1-18,55.7,37.9,23.5,31.3,21.4,8.9,94,59,18,30.25,30.01,7,0,7,0.00
2014-1-19,62.1,46.5,31.9,48.4,38.7,30.2,98,79,37,30.12,29.99,6,0,6,0.13
2014-1-20,66.1,45.2,28.8,47.8,38.2,28.0,99,80,42,30.07,29.88,1,0,1,0.01
2014-1-21,60.3,48.7,31.8,54.5,36.5,19.9,99,67,31,30.05,29.80,11,0,11,0.00
2014-1-22,48.0,33.6,25.5,26.2,17.9,9.2,93,57,22,30.16,30.05,11,0,11,0.00
2014-1-23,52.2,37.0,26.2,29.4,24.6,18.5,96,66,30,30.41,30.13,10,0,11,0.00
2014-1-24,39.1,35.1,29.9,24.1,10.7,2.1,65,37,23,30.52,30.30,12,0,12,0.00
2014-1-25,57.2,45.9,33.1,47.8,41.0,14.3,96,84,41,30.23,29.92,1,0,1,0.00
2014-1-26,59.9,44.2,30.2,44.5,37.3,29.2,99,80,36,30.02,29.85,0,0,0,0.00
2014-1-27,67.4,54.2,43.8,60.8,51.9,38.4,99,92,71,29.96,29.83,10,0,10,0.05
2014-1-28,47.7,28.5,0.0,38.3,19.6,0.0,95,52,43,30.15,29.94,11,0,11,0.14
2014-1-29,24.3,7.9,0.0,21.5,6.9,0.0,94,31,84,30.30,30.13,0,0,0,0.00
2014-1-30,36.9,27.9,19.7,34.8,26.4,17.8,96,94,91,30.26,30.09,7,0,7,0.17
2014-1-31,56.0,36.9,21.4,42.8,33.3,20.2,99,89,52,30.16,30.02,6,0,6,0.01